QPF
0.01 0.01 0.02 0.03 0.04 0.04 0.05 0.05 0.05 0.03 0.01 0.01 0.01 0.01 0.01 0.01 0.01 0.01 0.01 0.01 0.01 0.01 0.02 0.02 0.02 0.02 0.02 0.02 0.02 0.02 0.03 0.03 0.02 0.01 0.00 0.01 0.01 0.01 0.01 0.01 0.01 0.01 0.01
0.01 0.01 0.01 0.02 0.03 0.04 0.05 0.04 0.05 0.05 0.03 0.01 0.01 0.00 0.01 0.01 0.01 0.02 0.02 0.02 0.01 0.01 0.01 0.01 0.01 0.02 0.02 0.02 0.03 0.02 0.02 0.03 0.03 0.02 0.01 0.01 0.01 0.01 0.01 0.01 0.01 0.01 0.01
0.02 0.01 0.01 0.02 0.02 0.03 0.04 0.04 0.04 0.04 0.05 0.04 0.02 0.01 0.00 0.01 0.01 0.01 0.02 0.02 0.02 0.02 0.02 0.02 0.01 0.01 0.01 0.02 0.02 0.02 0.02 0.02 0.03 0.03 0.02 0.02 0.01 0.01 0.01 0.02 0.02 0.02 0.01
0.03 0.02 0.02 0.02 0.02 0.02 0.03 0.04 0.03 0.03 0.05 0.05 0.04 0.02 0.01 0.01 0.01 0.01 0.02 0.02 0.02 0.02 0.02 0.02 0.03 0.03 0.03 0.03 0.03 0.03 0.03 0.04 0.04 0.05 0.04 0.03 0.03 0.02 0.01 0.02 0.02 0.02 0.02
0.04 0.04 0.03 0.02 0.02 0.02 0.03 0.03 0.03 0.03 0.03 0.05 0.05 0.04 0.02 0.02 0.02 0.02 0.02 0.02 0.02 0.02 0.01 0.01 0.02 0.03 0.04 0.04 0.04 0.04 0.04 0.05 0.05 0.05 0.04 0.04 0.03 0.03 0.02 0.02 0.02 0.02 0.02
0.04 0.04 0.04 0.03 0.03 0.03 0.03 0.03 0.04 0.03 0.03 0.04 0.04 0.04 0.04 0.03 0.03 0.03 0.03 0.02 0.02 0.01 0.01 0.01 0.01 0.02 0.02 0.03 0.03 0.04 0.04 0.05 0.05 0.06 0.05 0.04 0.04 0.03 0.03 0.03 0.03 0.03 0.03
0.02 0.03 0.03 0.04 0.04 0.03 0.03 0.03 0.03 0.04 0.04 0.03 0.04 0.04 0.04 0.04 0.04 0.04 0.03 0.03 0.02 0.01 0.01 0.01 0.00 0.01 0.01 0.01 0.01 0.02 0.02 0.03 0.04 0.05 0.05 0.04 0.04 0.03 0.03 0.04 0.04 0.04 0.03
0.01 0.01 0.02 0.02 0.03 0.03 0.03 0.02 0.03 0.04 0.04 0.04 0.04 0.04 0.04 0.04 0.04 0.04 0.04 0.03 0.02 0.02 0.01 0.01 0.01 0.00 0.00 0.01 0.01 0.01 0.01 0.01 0.02 0.02 0.03 0.03 0.03 0.04 0.04 0.04 0.03 0.04 0.03
0.01 0.01 0.01 0.01 0.02 0.02 0.03 0.03 0.03 0.04 0.04 0.04 0.04 0.04 0.04 0.04 0.04 0.05 0.05 0.04 0.03 0.03 0.02 0.02 0.01 0.01 0.01 0.01 0.01 0.01 0.01 0.01 0.01 0.01 0.01 0.02 0.03 0.04 0.05 0.06 0.05 0.05 0.05
0.01 0.01 0.01 0.01 0.01 0.02 0.03 0.03 0.03 0.04 0.05 0.04 0.04 0.04 0.04 0.04 0.04 0.05 0.05 0.05 0.05 0.04 0.03 0.03 0.03 0.02 0.02 0.02 0.01 0.01 0.01 0.01 0.01 0.01 0.01 0.01 0.02 0.03 0.04 0.05 0.06 0.06 0.06
0.01 0.01 0.01 0.01 0.01 0.02 0.02 0.03 0.03 0.03 0.04 0.04 0.04 0.04 0.04 0.04 0.04 0.04 0.05 0.06 0.06 0.06 0.05 0.04 0.04 0.04 0.04 0.03 0.03 0.02 0.02 0.01 0.01 0.01 0.01 0.01 0.01 0.02 0.02 0.03 0.04 0.05 0.05
0.01 0.01 0.01 0.01 0.01 0.02 0.02 0.02 0.03 0.03 0.03 0.02 0.02 0.03 0.03 0.03 0.03 0.04 0.05 0.06 0.06 0.06 0.06 0.05 0.03 0.03 0.03 0.03 0.03 0.02 0.02 0.02 0.02 0.02 0.02 0.02 0.01 0.01 0.02 0.02 0.03 0.03 0.05
0.01 0.01 0.01 0.01 0.01 0.01 0.02 0.02 0.02 0.03 0.03 0.02 0.02 0.02 0.02 0.02 0.03 0.03 0.03 0.04 0.04 0.05 0.05 0.04 0.04 0.03 0.03 0.02 0.02 0.02 0.02 0.02 0.03 0.03 0.02 0.02 0.01 0.01 0.02 0.02 0.03 0.04 0.04
0.01 0.01 0.01 0.01 0.01 0.01 0.01 0.02 0.02 0.02 0.02 0.02 0.02 0.01 0.01 0.02 0.02 0.02 0.02 0.02 0.03 0.03 0.04 0.04 0.03 0.03 0.03 0.03 0.03 0.02 0.02 0.02 0.02 0.02 0.02 0.01 0.01 0.01 0.02 0.03 0.03 0.04 0.04
0.01 0.01 0.01 0.01 0.01 0.01 0.01 0.01 0.01 0.02 0.02 0.02 0.02 0.02 0.02 0.02 0.02 0.03 0.03 0.03 0.03 0.03 0.03 0.04 0.03 0.03 0.03 0.03 0.02 0.02 0.02 0.02 0.02 0.02 0.02 0.02 0.02 0.02 0.02 0.03 0.03 0.04 0.04
0.01 0.01 0.01 0.01 0.01 0.01 0.01 0.01 0.01 0.01 0.01 0.02 0.02 0.02 0.03 0.02 0.02 0.03 0.03 0.03 0.03 0.03 0.03 0.03 0.03 0.02 0.02 0.02 0.02 0.02 0.02 0.02 0.02 0.02 0.02 0.02 0.02 0.02 0.02 0.03 0.03 0.03 0.04
0.02 0.01 0.01 0.01 0.01 0.01 0.01 0.01 0.01 0.01 0.01 0.01 0.01 0.01 0.02 0.02 0.02 0.02 0.02 0.02 0.03 0.03 0.03 0.02 0.02 0.02 0.02 0.02 0.02 0.02 0.02 0.02 0.02 0.02 0.02 0.02 0.02 0.02 0.02 0.03 0.03 0.03 0.03
0.02 0.02 0.02 0.02 0.02 0.02 0.01 0.01 0.01 0.01 0.01 0.01 0.01 0.01 0.01 0.02 0.02 0.02 0.02 0.02 0.02 0.03 0.03 0.03 0.02 0.02 0.02 0.02 0.02 0.02 0.02 0.02 0.02 0.02 0.02 0.02 0.02 0.03 0.03 0.03 0.03 0.03 0.03
0.03 0.03 0.03 0.02 0.02 0.02 0.02 0.01 0.01 0.01 0.01 0.01 0.00 0.01 0.01 0.01 0.01 0.01 0.02 0.02 0.02 0.02 0.03 0.03 0.03 0.03 0.03 0.02 0.02 0.02 0.02 0.02 0.02 0.02 0.02 0.02 0.03 0.03 0.04 0.03 0.03 0.03 0.03
0.03 0.03 0.03 0.03 0.02 0.02 0.01 0.01 0.01 0.01 0.01 0.01 0.01 0.01 0.01 0.01 0.01 0.01 0.01 0.02 0.02 0.02 0.02 0.02 0.03 0.03 0.03 0.03 0.03 0.03 0.03 0.02 0.02 0.02 0.02 0.02 0.03 0.03 0.04 0.04 0.03 0.03 0.03
0.03 0.03 0.03 0.03 0.02 0.02 0.01 0.01 0.01 0.01 0.01 0.01 0.01 0.01 0.01 0.01 0.01 0.01 0.01 0.01 0.01 0.01 0.02 0.02 0.02 0.03 0.03 0.03 0.03 0.03 0.03 0.03 0.02 0.02 0.02 0.02 0.02 0.02 0.03 0.03 0.03 0.03 0.03
0.03 0.03 0.03 0.03 0.02 0.02 0.02 0.01 0.01 0.01 0.01 0.01 0.01 0.01 0.01 0.01 0.01 0.01 0.01 0.01 0.01 0.01 0.01 0.02 0.02 0.02 0.02 0.03 0.03 0.03 0.03 0.03 0.03 0.03 0.02 0.02 0.02 0.02 0.02 0.03 0.03 0.03 0.03
0.03 0.03 0.03 0.02 0.02 0.02 0.01 0.01 0.01 0.01 0.01 0.01 0.01 0.01 0.01 0.01 0.01 0.01 0.01 0.01 0.01 0.01 0.01 0.01 0.01 0.01 0.01 0.02 0.02 0.03 0.03 0.03 0.03 0.03 0.03 0.03 0.02 0.02 0.02 0.02 0.03 0.02 0.02
0.02 0.02 0.02 0.02 0.02 0.02 0.01 0.01 0.01 0.01 0.01 0.01 0.01 0.01 0.01 0.01 0.01 0.01 0.01 0.01 0.01 0.01 0.01 0.01 0.01 0.01 0.01 0.01 0.01 0.02 0.02 0.02 0.03 0.03 0.03 0.03 0.02 0.02 0.02 0.02 0.02 0.02 0.02
0.02 0.02 0.02 0.02 0.02 0.02 0.01 0.01 0.01 0.01 0.01 0.01 0.01 0.01 0.01 0.01 0.01 0.01 0.01 0.01 0.01 0.01 0.01 0.01 0.01 0.01 0.01 0.01 0.01 0.02 0.02 0.02 0.03 0.04 0.04 0.03 0.02 0.02 0.02 0.02 0.02 0.02 0.02
0.02 0.02 0.02 0.02 0.02 0.02 0.01 0.01 0.01 0.01 0.01 0.01 0.00 0.01 0.01 0.01 0.01 0.01 0.01 0.01 0.01 0.01 0.01 0.01 0.01 0.01 0.01 0.01 0.01 0.01 0.02 0.02 0.03 0.03 0.03 0.04 0.03 0.02 0.02 0.02 0.02 0.01 0.01
MSLP
1020.38 1020.86 1021.32 1021.75 1022.13 1022.50 1022.88 1023.29 1023.75 1024.25 1024.78 1025.33 1025.86 1026.35 1026.79 1027.17 1027.50 1027.79 1028.07 1028.36 1028.66 1028.98 1029.32 1029.65 1029.96 1030.23 1030.46 1030.66 1030.82 1030.97 1031.12 1031.29 1031.47 1031.66 1031.85 1032.02 1032.14 1032.20 1032.21 1032.15 1032.05 1031.93 1031.82
1020.78 1021.14 1021.49 1021.82 1022.13 1022.44 1022.77 1023.13 1023.54 1024.00 1024.48 1024.98 1025.46 1025.90 1026.30 1026.65 1026.95 1027.23 1027.50 1027.79 1028.09 1028.42 1028.75 1029.09 1029.40 1029.68 1029.92 1030.13 1030.31 1030.49 1030.67 1030.87 1031.09 1031.31 1031.54 1031.73 1031.89 1031.98 1032.01 1031.97 1031.89 1031.78 1031.67
1021.29 1021.54 1021.78 1022.01 1022.24 1022.47 1022.74 1023.04 1023.38 1023.77 1024.18 1024.60 1025.01 1025.40 1025.74 1026.05 1026.32 1026.59 1026.86 1027.14 1027.45 1027.78 1028.12 1028.46 1028.77 1029.05 1029.30 1029.52 1029.72 1029.91 1030.11 1030.34 1030.58 1030.83 1031.08 1031.31 1031.49 1031.60 1031.65 1031.64 1031.57 1031.47 1031.36
1021.95 1022.08 1022.21 1022.34 1022.48 1022.63 1022.81 1023.03 1023.29 1023.59 1023.92 1024.26 1024.59 1024.90 1025.18 1025.44 1025.69 1025.95 1026.21 1026.50 1026.81 1027.14 1027.48 1027.81 1028.12 1028.39 1028.63 1028.84 1029.03 1029.22 1029.43 1029.66 1029.91 1030.18 1030.44 1030.68 1030.88 1031.02 1031.09 1031.10 1031.06 1030.98 1030.89
1022.75 1022.77 1022.79 1022.82 1022.87 1022.93 1023.03 1023.16 1023.33 1023.54 1023.77 1024.01 1024.25 1024.49 1024.71 1024.93 1025.15 1025.38 1025.64 1025.92 1026.23 1026.56 1026.88 1027.19 1027.47 1027.71 1027.92 1028.10 1028.26 1028.42 1028.61 1028.82 1029.05 1029.31 1029.58 1029.82 1030.04 1030.20 1030.30 1030.35 1030.35 1030.30 1030.24
1023.70 1023.61 1023.54 1023.47 1023.42 1023.41 1023.42 1023.47 1023.55 1023.66 1023.79 1023.94 1024.09 1024.25 1024.40 1024.57 1024.75 1024.96 1025.20 1025.47 1025.76 1026.06 1026.35 1026.62 1026.85 1027.04 1027.19 1027.30 1027.41 1027.52 1027.65 1027.81 1028.02 1028.25 1028.50 1028.75 1028.98 1029.17 1029.32 1029.41 1029.46 1029.48 1029.47
1024.78 1024.59 1024.43 1024.28 1024.16 1024.06 1024.00 1023.97 1023.97 1023.99 1024.04 1024.09 1024.16 1024.23 1024.32 1024.42 1024.56 1024.73 1024.93 1025.16 1025.42 1025.67 1025.90 1026.11 1026.27 1026.38 1026.44 1026.47 1026.50 1026.53 1026.59 1026.69 1026.84 1027.04 1027.27 1027.52 1027.76 1027.99 1028.18 1028.34 1028.46 1028.56 1028.62
1025.92 1025.67 1025.43 1025.22 1025.04 1024.89 1024.77 1024.67 1024.60 1024.55 1024.51 1024.48 1024.46 1024.45 1024.47 1024.50 1024.57 1024.68 1024.83 1025.00 1025.19 1025.37 1025.53 1025.65 1025.72 1025.74 1025.71 1025.65 1025.57 1025.52 1025.49 1025.52 1025.61 1025.76 1025.97 1026.21 1026.47 1026.73 1026.98 1027.21 1027.41 1027.59 1027.74
1027.07 1026.76 1026.49 1026.23 1026.01 1025.83 1025.67 1025.53 1025.41 1025.29 1025.19 1025.08 1024.98 1024.89 1024.82 1024.77 1024.76 1024.80 1024.86 1024.96 1025.06 1025.16 1025.24 1025.26 1025.24 1025.16 1025.03 1024.87 1024.71 1024.56 1024.45 1024.40 1024.43 1024.53 1024.69 1024.92 1025.19 1025.48 1025.78 1026.07 1026.35 1026.61 1026.84
1028.14 1027.82 1027.52 1027.25 1027.02 1026.81 1026.63 1026.46 1026.30 1026.14 1025.97 1025.80 1025.63 1025.46 1025.30 1025.17 1025.08 1025.02 1025.00 1025.01 1025.02 1025.03 1025.01 1024.95 1024.84 1024.67 1024.46 1024.22 1023.97 1023.74 1023.56 1023.43 1023.39 1023.43 1023.55 1023.74 1024.00 1024.29 1024.62 1024.95 1025.29 1025.61 1025.91
1029.09 1028.77 1028.48 1028.21 1027.97 1027.76 1027.57 1027.38 1027.20 1027.00 1026.79 1026.56 1026.32 1026.08 1025.85 1025.64 1025.46 1025.32 1025.21 1025.12 1025.05 1024.98 1024.88 1024.75 1024.57 1024.33 1024.06 1023.75 1023.44 1023.14 1022.88 1022.69 1022.57 1022.53 1022.59 1022.73 1022.94 1023.21 1023.52 1023.86 1024.21 1024.56 1024.90
1029.88 1029.59 1029.31 1029.05 1028.82 1028.61 1028.41 1028.22 1028.01 1027.79 1027.54 1027.27 1026.98 1026.68 1026.39 1026.11 1025.86 1025.64 1025.45 1025.30 1025.16 1025.02 1024.86 1024.68 1024.45 1024.17 1023.86 1023.51 1023.15 1022.80 1022.48 1022.21 1022.01 1021.89 1021.85 1021.90 1022.03 1022.22 1022.47 1022.76 1023.08 1023.42 1023.76
1030.52 1030.25 1029.99 1029.75 1029.53 1029.32 1029.11 1028.91 1028.69 1028.44 1028.17 1027.87 1027.54 1027.20 1026.86 1026.54 1026.24 1025.97 1025.73 1025.52 1025.33 1025.16 1024.97 1024.75 1024.50 1024.21 1023.88 1023.51 1023.12 1022.73 1022.35 1022.01 1021.72 1021.49 1021.33 1021.26 1021.26 1021.33 1021.47 1021.66 1021.90 1022.17 1022.46
1031.02 1030.78 1030.53 1030.30 1030.08 1029.87 1029.65 1029.43 1029.19 1028.93 1028.64 1028.32 1027.98 1027.62 1027.26 1026.91 1026.58 1026.28 1026.01 1025.78 1025.58 1025.38 1025.18 1024.96 1024.72 1024.43 1024.10 1023.73 1023.32 1022.90 1022.47 1022.05 1021.65 1021.31 1021.01 1020.78 1020.62 1020.53 1020.51 1020.55 1020.66 1020.82 1021.03
1031.41 1031.19 1030.96 1030.73 1030.50 1030.27 1030.04 1029.80 1029.55 1029.27 1028.96 1028.63 1028.28 1027.92 1027.55 1027.20 1026.87 1026.57 1026.30 1026.06 1025.86 1025.66 1025.47 1025.26 1025.03 1024.76 1024.45 1024.08 1023.67 1023.23 1022.75 1022.26 1021.77 1021.29 1020.85 1020.46 1020.11 1019.84 1019.63 1019.50 1019.45 1019.47 1019.56
1031.72 1031.51 1031.28 1031.05 1030.81 1030.56 1030.31 1030.05 1029.78 1029.48 1029.16 1028.83 1028.48 1028.12 1027.77 1027.43 1027.10 1026.81 1026.56 1026.33 1026.13 1025.95 1025.77 1025.58 1025.37 1025.12 1024.83 1024.48 1024.07 1023.61 1023.10 1022.56 1021.98 1021.40 1020.82 1020.27 1019.76 1019.29 1018.90 1018.59 1018.36 1018.22 1018.18
1031.96 1031.76 1031.53 1031.29 1031.04 1030.78 1030.51 1030.23 1029.93 1029.62 1029.29 1028.95 1028.60 1028.25 1027.91 1027.58 1027.28 1027.00 1026.75 1026.54 1026.34 1026.17 1026.00 1025.83 1025.63 1025.40 1025.13 1024.79 1024.40 1023.94 1023.42 1022.84 1022.22 1021.56 1020.88 1020.20 1019.55 1018.93 1018.38 1017.90 1017.51 1017.22 1017.05
1032.12 1031.92 1031.71 1031.47 1031.22 1030.95 1030.66 1030.36 1030.04 1029.71 1029.37 1029.02 1028.67 1028.33 1027.99 1027.67 1027.38 1027.10 1026.86 1026.64 1026.45 1026.27 1026.10 1025.92 1025.73 1025.51 1025.25 1024.94 1024.56 1024.12 1023.61 1023.03 1022.39 1021.70 1020.98 1020.23 1019.49 1018.77 1018.10 1017.50 1016.99 1016.58 1016.28
1032.18 1032.00 1031.80 1031.58 1031.33 1031.07 1030.78 1030.46 1030.13 1029.79 1029.43 1029.07 1028.71 1028.36 1028.02 1027.70 1027.39 1027.11 1026.85 1026.62 1026.40 1026.20 1026.01 1025.81 1025.61 1025.39 1025.13 1024.83 1024.48 1024.07 1023.60 1023.05 1022.44 1021.77 1021.05 1020.30 1019.53 1018.78 1018.06 1017.39 1016.80 1016.30 1015.91
1032.10 1031.95 1031.79 1031.60 1031.39 1031.14 1030.86 1030.54 1030.21 1029.85 1029.48 1029.10 1028.72 1028.35 1027.99 1027.65 1027.32 1027.01 1026.72 1026.45 1026.19 1025.95 1025.71 1025.48 1025.25 1025.01 1024.74 1024.45 1024.13 1023.75 1023.32 1022.84 1022.29 1021.68 1021.02 1020.32 1019.59 1018.86 1018.15 1017.48 1016.86 1016.33 1015.89
1031.87 1031.78 1031.67 1031.53 1031.36 1031.14 1030.88 1030.58 1030.25 1029.88 1029.49 1029.09 1028.69 1028.29 1027.91 1027.53 1027.17 1026.82 1026.48 1026.16 1025.84 1025.54 1025.24 1024.95 1024.67 1024.39 1024.10 1023.80 1023.49 1023.14 1022.76 1022.34 1021.87 1021.35 1020.78 1020.18 1019.54 1018.89 1018.24 1017.61 1017.03 1016.51 1016.06
1031.51 1031.47 1031.42 1031.35 1031.23 1031.06 1030.84 1030.56 1030.23 1029.86 1029.46 1029.03 1028.61 1028.18 1027.75 1027.34 1026.93 1026.53 1026.14 1025.76 1025.38 1025.00 1024.63 1024.27 1023.91 1023.57 1023.23 1022.91 1022.58 1022.25 1021.90 1021.54 1021.14 1020.71 1020.25 1019.75 1019.22 1018.68 1018.13 1017.60 1017.09 1016.62 1016.21
1031.02 1031.05 1031.07 1031.06 1031.00 1030.88 1030.70 1030.44 1030.12 1029.75 1029.34 1028.90 1028.45 1027.99 1027.53 1027.07 1026.62 1026.18 1025.73 1025.28 1024.83 1024.38 1023.93 1023.48 1023.04 1022.61 1022.20 1021.82 1021.44 1021.09 1020.75 1020.40 1020.05 1019.69 1019.32 1018.92 1018.50 1018.08 1017.65 1017.22 1016.81 1016.43 1016.09
1030.47 1030.56 1030.64 1030.69 1030.69 1030.61 1030.46 1030.23 1029.93 1029.55 1029.13 1028.68 1028.20 1027.71 1027.22 1026.74 1026.25 1025.76 1025.26 1024.76 1024.24 1023.71 1023.17 1022.63 1022.09 1021.56 1021.06 1020.58 1020.13 1019.71 1019.33 1018.96 1018.62 1018.29 1017.96 1017.64 1017.31 1016.98 1016.66 1016.34 1016.04 1015.76 1015.52
1029.90 1030.04 1030.16 1030.26 1030.30 1030.26 1030.14 1029.92 1029.62 1029.25 1028.83 1028.36 1027.86 1027.35 1026.84 1026.33 1025.81 1025.29 1024.75 1024.19 1023.61 1023.01 1022.38 1021.75 1021.10 1020.46 1019.84 1019.24 1018.68 1018.17 1017.69 1017.27 1016.88 1016.53 1016.21 1015.91 1015.64 1015.38 1015.14 1014.92 1014.72 1014.54 1014.39
1029.36 1029.52 1029.68 1029.80 1029.86 1029.84 1029.73 1029.52 1029.23 1028.85 1028.42 1027.93 1027.42 1026.90 1026.37 1025.83 1025.29 1024.74 1024.17 1023.57 1022.93 1022.26 1021.56 1020.82 1020.07 1019.31 1018.56 1017.83 1017.14 1016.50 1015.91 1015.38 1014.91 1014.50 1014.14 1013.83 1013.56 1013.34 1013.15 1012.99 1012.87 1012.78 1012.72
Thickness
5423 5423 5423 5422 5421 5420 5420 5421 5422 5423 5424 5425 5426 5427 5428 5429 5430 5431 5432 5434 5435 5436 5437 5438 5439 5440 5441 5442 5443 5444 5445 5446 5448 5454 5455 5456 5456 5457 5458 5459 5460 5462 5464
5411 5411 5410 5410 5409 5409 5409 5410 5411 5412 5413 5414 5415 5417 5417 5418 5419 5420 5422 5423 5424 5425 5426 5426 5427 5428 5429 5430 5431 5432 5433 5434 5435 5439 5441 5442 5443 5445 5446 5446 5448 5449 5451
5399 5399 5398 5398 5398 5398 5398 5399 5400 5400 5401 5402 5404 5405 5406 5407 5408 5409 5410 5412 5413 5414 5415 5415 5416 5416 5418 5418 5419 5420 5421 5423 5423 5424 5427 5428 5430 5430 5431 5433 5434 5436 5437
5386 5386 5386 5387 5387 5387 5388 5388 5388 5388 5389 5391 5392 5394 5396 5397 5397 5398 5399 5400 5401 5402 5403 5404 5405 5405 5406 5407 5408 5408 5408 5409 5410 5411 5413 5414 5415 5416 5416 5418 5420 5422 5424
5373 5374 5374 5375 5375 5375 5376 5376 5376 5377 5378 5379 5380 5382 5383 5384 5386 5387 5388 5388 5389 5390 5391 5391 5393 5393 5394 5395 5396 5397 5396 5396 5397 5399 5400 5401 5402 5402 5403 5404 5406 5408 5410
5361 5361 5361 5362 5362 5363 5364 5364 5365 5366 5367 5367 5368 5370 5371 5372 5374 5375 5375 5376 5377 5378 5378 5379 5380 5381 5382 5383 5384 5385 5385 5385 5385 5385 5387 5389 5391 5391 5390 5389 5390 5391 5395
5348 5349 5349 5349 5350 5351 5352 5352 5353 5354 5355 5356 5357 5357 5358 5359 5360 5362 5363 5363 5364 5365 5365 5366 5367 5368 5369 5369 5370 5372 5372 5373 5373 5373 5374 5376 5377 5377 5376 5375 5375 5376 5380
5337 5337 5337 5338 5338 5339 5340 5340 5341 5342 5343 5344 5345 5345 5346 5346 5347 5349 5350 5350 5351 5351 5352 5352 5353 5354 5355 5356 5357 5358 5359 5360 5360 5361 5362 5363 5362 5362 5362 5362 5362 5362 5364
5326 5326 5326 5326 5327 5327 5328 5328 5329 5330 5331 5331 5332 5332 5333 5334 5334 5336 5337 5336 5337 5338 5338 5339 5340 5341 5343 5344 5344 5345 5345 5346 5346 5347 5348 5348 5348 5348 5348 5347 5347 5347 5351
5316 5316 5315 5315 5315 5315 5316 5316 5317 5318 5318 5319 5319 5319 5319 5320 5322 5323 5324 5324 5324 5325 5325 5326 5327 5329 5330 5331 5331 5331 5332 5332 5332 5333 5333 5334 5334 5334 5335 5335 5336 5335 5336
5305 5305 5305 5304 5304 5304 5304 5305 5305 5305 5305 5306 5306 5306 5306 5307 5309 5311 5312 5311 5311 5311 5311 5312 5313 5315 5317 5318 5319 5318 5319 5319 5318 5319 5319 5320 5320 5321 5322 5323 5323 5323 5323
5294 5294 5294 5294 5294 5294 5293 5293 5293 5293 5293 5293 5293 5293 5294 5294 5296 5298 5300 5300 5300 5298 5298 5298 5299 5300 5302 5303 5304 5305 5306 5305 5305 5305 5306 5307 5308 5309 5310 5310 5311 5311 5312
5283 5282 5282 5283 5283 5282 5282 5282 5282 5281 5281 5281 5282 5282 5282 5283 5283 5285 5286 5287 5287 5285 5285 5285 5286 5286 5286 5287 5289 5290 5291 5291 5291 5292 5293 5295 5296 5297 5297 5297 5298 5299 5300
5272 5271 5272 5272 5272 5271 5271 5271 5271 5270 5270 5270 5270 5270 5270 5270 5270 5271 5271 5272 5273 5272 5271 5272 5272 5271 5272 5273 5274 5275 5275 5277 5278 5279 5280 5281 5282 5283 5284 5285 5286 5286 5287
5261 5261 5260 5261 5260 5260 5260 5260 5260 5259 5259 5260 5260 5259 5259 5259 5259 5260 5259 5259 5259 5258 5257 5257 5257 5257 5257 5258 5259 5260 5261 5262 5263 5265 5266 5267 5269 5270 5271 5273 5273 5273 5273
5251 5251 5250 5250 5250 5250 5250 5250 5250 5249 5250 5250 5250 5249 5248 5248 5248 5249 5248 5248 5247 5246 5244 5241 5241 5242 5242 5243 5244 5245 5246 5247 5249 5251 5252 5254 5255 5257 5258 5260 5260 5261 5262
5240 5240 5240 5240 5240 5240 5240 5240 5239 5239 5239 5239 5239 5239 5238 5238 5238 5237 5237 5236 5234 5233 5229 5227 5226 5226 5227 5228 5229 5231 5232 5233 5235 5237 5239 5241 5242 5244 5245 5247 5248 5249 5250
5231 5231 5231 5231 5230 5230 5229 5228 5228 5227 5227 5227 5227 5228 5228 5227 5227 5226 5225 5223 5220 5218 5216 5214 5213 5213 5213 5214 5215 5217 5219 5220 5222 5223 5226 5227 5229 5230 5232 5234 5236 5237 5238
5222 5222 5222 5221 5221 5220 5219 5218 5217 5216 5216 5215 5215 5215 5216 5216 5215 5214 5212 5209 5207 5205 5204 5202 5202 5201 5201 5202 5203 5205 5207 5208 5209 5211 5213 5215 5216 5218 5219 5221 5223 5225 5226
5213 5214 5213 5212 5211 5210 5210 5209 5208 5207 5206 5205 5204 5204 5204 5204 5202 5201 5199 5197 5196 5194 5193 5192 5191 5191 5191 5191 5192 5193 5195 5197 5198 5199 5201 5203 5204 5205 5207 5209 5211 5212 5214
5205 5205 5205 5204 5202 5201 5200 5200 5199 5197 5196 5195 5194 5194 5195 5192 5190 5189 5187 5186 5185 5184 5183 5183 5182 5182 5182 5182 5183 5184 5185 5187 5188 5189 5190 5191 5192 5194 5196 5197 5199 5200 5201
5196 5196 5195 5194 5193 5193 5192 5191 5190 5188 5187 5186 5185 5184 5185 5183 5181 5179 5178 5176 5176 5175 5174 5174 5174 5174 5174 5174 5174 5175 5176 5178 5179 5180 5180 5181 5182 5183 5184 5186 5187 5188 5189
5187 5186 5185 5185 5184 5185 5183 5182 5180 5179 5178 5176 5176 5175 5174 5173 5172 5170 5169 5168 5167 5167 5166 5166 5165 5166 5166 5166 5167 5167 5168 5170 5170 5171 5171 5172 5172 5173 5174 5175 5176 5178 5179
5178 5177 5175 5174 5174 5173 5173 5172 5171 5169 5168 5167 5166 5165 5164 5163 5162 5162 5161 5160 5159 5159 5158 5158 5158 5158 5159 5159 5160 5161 5162 5162 5163 5164 5164 5164 5164 5165 5166 5167 5168 5170 5171
5169 5167 5166 5165 5165 5164 5163 5162 5161 5159 5158 5157 5156 5155 5154 5154 5153 5152 5152 5151 5151 5150 5150 5150 5150 5151 5152 5153 5154 5154 5156 5157 5157 5158 5158 5158 5158 5158 5159 5161 5162 5162 5163
5160 5159 5157 5156 5155 5154 5153 5152 5151 5150 5148 5148 5147 5146 5145 5145 5144 5143 5143 5143 5142 5142 5142 5143 5143 5144 5145 5146 5148 5149 5150 5152 5153 5153 5153 5153 5153 5153 5154 5154 5155 5156 5156